BAW790E EGLL-ESGG

Flight info

Callsign BAW790E
Flight time 1h 30m
Altitude 37000
Route BPK Q295 PAAVO M604 GIVPO DCT LARGA DCT SOPTO DCT AAL N607 MAKUR
Aircraft A320/M-SDE3FGHIRWY/LB1

Departure

Time 2026-05-04 18:21
Airport London Heathrow Airport (EGLL)

Arrival

Time 2026-05-04 19:52
Airport Göteborg Landvetter Airport (ESGG)
Time Latitude Longitude Altitude Speed Heading
2026-05-04 17:50 51.47271 -0.48585 89 ft 0 kts 270°
2026-05-04 18:10 51.47271 -0.48567 89 ft 4 kts 266°
2026-05-04 18:10 51.47275 -0.48524 87 ft 4 kts 253°
2026-05-04 18:10 51.47286 -0.48487 90 ft 4 kts 221°
2026-05-04 18:11 51.47301 -0.48474 89 ft 1 kts 180°
2026-05-04 18:11 51.47305 -0.48474 89 ft 0 kts 180°
2026-05-04 18:15 51.47302 -0.48474 89 ft 3 kts 180°
2026-05-04 18:15 51.47257 -0.48474 87 ft 8 kts 179°
2026-05-04 18:16 51.47191 -0.48473 86 ft 11 kts 179°
2026-05-04 18:16 51.47109 -0.48472 88 ft 13 kts 179°
2026-05-04 18:16 51.47012 -0.48471 88 ft 15 kts 180°
2026-05-04 18:17 51.46836 -0.48470 86 ft 8 kts 180°
2026-05-04 18:17 51.46825 -0.48470 86 ft 0 kts 180°
2026-05-04 18:17 51.46817 -0.48469 86 ft 0 kts 178°
2026-05-04 18:18 51.46815 -0.48469 86 ft 2 kts 178°
2026-05-04 18:19 51.46742 -0.48568 86 ft 12 kts 269°
2026-05-04 18:19 51.46737 -0.48707 86 ft 12 kts 252°
2026-05-04 18:19 51.46683 -0.48752 86 ft 9 kts 181°
2026-05-04 18:20 51.46613 -0.48761 87 ft 11 kts 197°
2026-05-04 18:20 51.46532 -0.48785 86 ft 13 kts 170°
2026-05-04 18:20 51.46479 -0.48687 86 ft 12 kts 97°
2026-05-04 18:20 51.46478 -0.48416 87 ft 51 kts 90°
2026-05-04 18:21 51.46482 -0.47495 86 ft 111 kts 90°
2026-05-04 18:21 51.46488 -0.46025 120 ft 151 kts 89°
2026-05-04 18:21 51.46483 -0.44345 695 ft 149 kts 88°
2026-05-04 18:21 51.46503 -0.42660 1299 ft 153 kts 85°
2026-05-04 18:22 51.46787 -0.40978 1594 ft 169 kts 57°
2026-05-04 18:22 51.47585 -0.39400 1845 ft 191 kts 49°
2026-05-04 18:22 51.48491 -0.37684 2169 ft 212 kts 49°
2026-05-04 18:22 51.49495 -0.35771 2533 ft 236 kts 49°
2026-05-04 18:23 51.50579 -0.33695 3211 ft 247 kts 50°
2026-05-04 18:23 51.51690 -0.31550 4082 ft 253 kts 52°
2026-05-04 18:23 51.52532 -0.29026 4871 ft 262 kts 71°
2026-05-04 18:23 51.53027 -0.26175 5641 ft 270 kts 76°
2026-05-04 18:24 51.53473 -0.23247 6280 ft 272 kts 76°
2026-05-04 18:24 51.53924 -0.20275 6928 ft 276 kts 76°
2026-05-04 18:24 51.54387 -0.17266 7577 ft 279 kts 76°
2026-05-04 18:24 51.54860 -0.14259 8231 ft 284 kts 76°
2026-05-04 18:25 51.55387 -0.11132 8937 ft 288 kts 71°
2026-05-04 18:25 51.56341 -0.08280 9623 ft 293 kts 58°
2026-05-04 18:25 51.57488 -0.05531 10287 ft 299 kts 56°
2026-05-04 18:25 51.58659 -0.02732 10922 ft 305 kts 57°
2026-05-04 18:26 51.59687 0.00197 11539 ft 310 kts 62°
2026-05-04 18:26 51.60710 0.03333 11941 ft 326 kts 63°
2026-05-04 18:26 51.61763 0.06666 12263 ft 342 kts 63°
2026-05-04 18:26 51.62838 0.10111 12881 ft 347 kts 63°
2026-05-04 18:27 51.63927 0.13599 13589 ft 350 kts 63°
2026-05-04 18:27 51.65028 0.17113 14263 ft 352 kts 63°
2026-05-04 18:27 51.66138 0.20647 14869 ft 356 kts 63°
2026-05-04 18:27 51.67264 0.24223 15466 ft 360 kts 63°
2026-05-04 18:28 51.68016 0.26609 15845 ft 362 kts 64°
2026-05-04 18:28 51.69164 0.30246 16416 ft 366 kts 64°
2026-05-04 18:28 51.70324 0.33918 16997 ft 370 kts 64°
2026-05-04 18:28 51.71496 0.37636 17565 ft 374 kts 64°
2026-05-04 18:29 51.73059 0.42620 18328 ft 378 kts 64°
2026-05-04 18:29 51.74251 0.46432 18826 ft 383 kts 64°
2026-05-04 18:29 51.75062 0.49023 19195 ft 384 kts 64°
2026-05-04 18:29 51.76271 0.52894 19733 ft 388 kts 64°
2026-05-04 18:30 51.78721 0.60738 20826 ft 394 kts 64°
2026-05-04 18:30 51.79958 0.64708 21343 ft 397 kts 64°
2026-05-04 18:30 51.81202 0.68710 21851 ft 401 kts 64°
2026-05-04 18:31 51.82458 0.72774 22241 ft 407 kts 64°
2026-05-04 18:31 51.83726 0.76889 22722 ft 411 kts 64°
2026-05-04 18:31 51.85009 0.81042 23221 ft 415 kts 63°
2026-05-04 18:31 51.86556 0.85004 23682 ft 419 kts 53°
2026-05-04 18:32 51.88507 0.88533 24093 ft 422 kts 43°
2026-05-04 18:32 51.90680 0.91687 24511 ft 425 kts 41°
2026-05-04 18:32 51.92886 0.94883 24923 ft 427 kts 42°
2026-05-04 18:32 51.95101 0.98111 25317 ft 429 kts 42°
2026-05-04 18:33 51.97297 1.01320 25708 ft 432 kts 42°
2026-05-04 18:33 51.99563 1.04630 26107 ft 434 kts 42°
2026-05-04 18:33 52.01792 1.07894 26493 ft 436 kts 42°
2026-05-04 18:33 52.04039 1.11191 26867 ft 439 kts 43°
2026-05-04 18:34 52.06403 1.14349 27237 ft 441 kts 36°
2026-05-04 18:34 52.08861 1.17342 27608 ft 443 kts 36°
2026-05-04 18:34 52.11368 1.20393 27985 ft 445 kts 37°
2026-05-04 18:34 52.13830 1.23479 28356 ft 447 kts 38°
2026-05-04 18:35 52.16214 1.26633 28710 ft 449 kts 40°
2026-05-04 18:35 52.18614 1.29921 29069 ft 452 kts 40°
2026-05-04 18:35 52.21008 1.33258 29425 ft 454 kts 40°
2026-05-04 18:35 52.23413 1.36612 29775 ft 456 kts 40°
2026-05-04 18:36 52.25831 1.39966 30111 ft 458 kts 40°
2026-05-04 18:36 52.28273 1.43330 30420 ft 460 kts 40°
2026-05-04 18:36 52.30734 1.46696 30708 ft 462 kts 39°
2026-05-04 18:36 52.33196 1.50071 31091 ft 462 kts 41°
2026-05-04 18:37 52.35492 1.53747 31466 ft 462 kts 46°
2026-05-04 18:37 52.37738 1.57503 31854 ft 461 kts 46°
2026-05-04 18:37 52.39978 1.61262 32257 ft 461 kts 46°
2026-05-04 18:37 52.42212 1.65020 32660 ft 460 kts 46°
2026-05-04 18:38 52.44441 1.68782 33067 ft 460 kts 46°
2026-05-04 18:38 52.46668 1.72542 33475 ft 459 kts 46°
2026-05-04 18:38 52.48891 1.76302 33886 ft 459 kts 46°
2026-05-04 18:38 52.51103 1.80054 34252 ft 458 kts 46°
2026-05-04 18:39 52.53321 1.83823 34574 ft 457 kts 46°
2026-05-04 18:39 52.55524 1.87574 34899 ft 457 kts 46°
2026-05-04 18:39 52.57730 1.91331 35206 ft 456 kts 46°
2026-05-04 18:39 52.59934 1.95086 35500 ft 456 kts 46°
2026-05-04 18:40 52.62141 1.98845 35795 ft 456 kts 46°
2026-05-04 18:40 52.64342 2.02602 36066 ft 456 kts 46°
2026-05-04 18:40 52.66540 2.06362 36320 ft 456 kts 46°
2026-05-04 18:40 52.68739 2.10131 36573 ft 456 kts 46°
2026-05-04 18:41 52.70940 2.13911 36838 ft 456 kts 46°
2026-05-04 18:41 52.73138 2.17689 37013 ft 457 kts 46°
2026-05-04 18:41 52.75344 2.21488 37057 ft 459 kts 46°
2026-05-04 18:42 52.79766 2.29129 37048 ft 460 kts 46°
2026-05-04 18:42 52.84183 2.36788 37051 ft 460 kts 46°
2026-05-04 18:43 52.88571 2.44412 37052 ft 460 kts 46°
2026-05-04 18:43 52.92986 2.52100 37053 ft 460 kts 46°
2026-05-04 18:44 52.97458 2.59694 37045 ft 461 kts 40°
2026-05-04 18:44 53.02828 2.65429 37055 ft 459 kts 25°
2026-05-04 18:45 53.08548 2.70142 37055 ft 459 kts 25°
2026-05-04 18:45 53.14259 2.74897 37060 ft 459 kts 25°
2026-05-04 18:46 53.19962 2.79675 37065 ft 459 kts 25°
2026-05-04 18:46 53.25669 2.84459 37069 ft 459 kts 25°
2026-05-04 18:47 53.31385 2.89214 37071 ft 458 kts 24°
2026-05-04 18:47 53.37155 2.93713 37071 ft 458 kts 23°
2026-05-04 18:48 53.42946 2.98149 37064 ft 457 kts 24°
2026-05-04 18:48 53.48720 3.02651 37064 ft 457 kts 24°
2026-05-04 18:49 53.54476 3.07214 37070 ft 457 kts 24°
2026-05-04 18:49 53.60225 3.11788 37067 ft 457 kts 24°
2026-05-04 18:50 53.65987 3.16369 37060 ft 458 kts 24°
2026-05-04 18:50 53.71751 3.20955 37074 ft 458 kts 24°
2026-05-04 18:51 53.77520 3.25561 37073 ft 458 kts 24°
2026-05-04 18:51 53.83243 3.30146 37074 ft 458 kts 24°
2026-05-04 18:52 53.88998 3.34780 37079 ft 458 kts 24°
2026-05-04 18:52 53.94745 3.39420 37079 ft 458 kts 24°
2026-05-04 18:53 54.00490 3.44071 37086 ft 457 kts 24°
2026-05-04 18:53 54.06220 3.48732 37086 ft 456 kts 24°
2026-05-04 18:54 54.11943 3.53391 37085 ft 456 kts 24°
2026-05-04 18:54 54.17660 3.58055 37083 ft 455 kts 24°
2026-05-04 18:55 54.23363 3.62726 37087 ft 455 kts 24°
2026-05-04 18:55 54.31903 3.69742 37084 ft 453 kts 24°
2026-05-04 18:56 54.37582 3.74430 37079 ft 453 kts 24°
2026-05-04 18:56 54.43258 3.79134 37074 ft 453 kts 24°
2026-05-04 18:57 54.48938 3.83851 37079 ft 453 kts 24°
2026-05-04 18:57 54.54614 3.88583 37143 ft 454 kts 24°
2026-05-04 18:58 54.57449 3.90948 37400 ft 454 kts 24°
2026-05-04 18:58 54.60289 3.93318 37639 ft 454 kts 24°
2026-05-04 18:58 54.63132 3.95699 37843 ft 454 kts 24°
2026-05-04 18:58 54.65977 3.98093 38032 ft 456 kts 24°
2026-05-04 18:59 54.71680 4.02897 38047 ft 456 kts 25°
2026-05-04 18:59 54.74346 4.05866 38050 ft 458 kts 40°
2026-05-04 18:59 54.76503 4.09919 38057 ft 459 kts 51°
2026-05-04 19:00 54.80421 4.18681 38058 ft 461 kts 51°
2026-05-04 19:00 54.84322 4.27493 38053 ft 461 kts 52°
2026-05-04 19:01 54.88219 4.36332 38062 ft 461 kts 51°
2026-05-04 19:01 54.92125 4.45192 38062 ft 462 kts 52°
2026-05-04 19:02 54.96027 4.54078 38074 ft 462 kts 51°
2026-05-04 19:02 54.99929 4.62980 38067 ft 463 kts 51°
2026-05-04 19:03 55.03828 4.71914 38062 ft 463 kts 52°
2026-05-04 19:03 55.07718 4.80878 38066 ft 463 kts 52°
2026-05-04 19:04 55.11599 4.89865 38064 ft 463 kts 52°
2026-05-04 19:04 55.15420 4.98942 38060 ft 464 kts 53°
2026-05-04 19:05 55.19115 5.08193 38063 ft 464 kts 54°
2026-05-04 19:05 55.22783 5.17494 38062 ft 464 kts 54°
2026-05-04 19:06 55.26479 5.26787 38056 ft 465 kts 54°
2026-05-04 19:06 55.30190 5.36083 38057 ft 465 kts 54°
2026-05-04 19:07 55.33891 5.45381 38058 ft 465 kts 54°
2026-05-04 19:07 55.37579 5.54721 38058 ft 465 kts 54°
2026-05-04 19:08 55.41260 5.64086 38064 ft 465 kts 54°
2026-05-04 19:08 55.44918 5.73405 38055 ft 466 kts 54°
2026-05-04 19:09 55.48604 5.82808 38052 ft 466 kts 54°
2026-05-04 19:09 55.52279 5.92240 38052 ft 466 kts 54°
2026-05-04 19:10 55.55946 6.01696 38051 ft 467 kts 54°
2026-05-04 19:10 55.59599 6.11168 38052 ft 467 kts 54°
2026-05-04 19:11 55.63253 6.20672 38072 ft 467 kts 54°
2026-05-04 19:11 55.66908 6.30193 38054 ft 468 kts 54°
2026-05-04 19:12 55.72369 6.44526 38047 ft 468 kts 54°
2026-05-04 19:13 55.76006 6.54118 38043 ft 468 kts 54°
2026-05-04 19:13 55.79635 6.63734 38044 ft 468 kts 54°
2026-05-04 19:14 55.83263 6.73364 38050 ft 469 kts 54°
2026-05-04 19:14 55.86886 6.83010 38036 ft 469 kts 55°
2026-05-04 19:15 55.90502 6.92671 38031 ft 469 kts 55°
2026-05-04 19:15 55.94113 7.02374 38032 ft 470 kts 55°
2026-05-04 19:16 55.97107 7.10464 38038 ft 470 kts 55°
2026-05-04 19:16 56.00708 7.20207 38034 ft 470 kts 55°
2026-05-04 19:17 56.04303 7.29970 38038 ft 470 kts 55°
2026-05-04 19:17 56.07889 7.39760 38040 ft 470 kts 55°
2026-05-04 19:18 56.11471 7.49564 38039 ft 470 kts 55°
2026-05-04 19:18 56.15040 7.59388 38037 ft 471 kts 55°
2026-05-04 19:19 56.18601 7.69241 38034 ft 471 kts 55°
2026-05-04 19:19 56.22162 7.79117 38036 ft 471 kts 55°
2026-05-04 19:20 56.25716 7.89008 38026 ft 471 kts 56°
2026-05-04 19:20 56.29261 7.98920 38026 ft 471 kts 56°
2026-05-04 19:21 56.32772 8.08775 38051 ft 471 kts 55°
2026-05-04 19:21 56.36310 8.18724 38026 ft 471 kts 55°
2026-05-04 19:22 56.39840 8.28695 38022 ft 471 kts 55°
2026-05-04 19:22 56.43354 8.38701 38019 ft 472 kts 56°
2026-05-04 19:23 56.46861 8.48726 38016 ft 472 kts 56°
2026-05-04 19:23 56.50364 8.58767 38017 ft 472 kts 56°
2026-05-04 19:24 56.53858 8.68819 38025 ft 472 kts 56°
2026-05-04 19:24 56.57350 8.78898 38023 ft 472 kts 56°
2026-05-04 19:25 56.60837 8.89014 38007 ft 473 kts 56°
2026-05-04 19:25 56.64314 8.99147 38001 ft 473 kts 56°
2026-05-04 19:26 56.67804 9.09290 38001 ft 473 kts 54°
2026-05-04 19:26 56.71475 9.19113 37761 ft 462 kts 52°
2026-05-04 19:26 56.73322 9.23833 37610 ft 452 kts 51°
2026-05-04 19:27 56.75136 9.28448 37260 ft 447 kts 51°
2026-05-04 19:27 56.76970 9.33139 36275 ft 459 kts 52°
2026-05-04 19:27 56.78814 9.37914 35833 ft 465 kts 52°
2026-05-04 19:27 56.80679 9.42791 35373 ft 470 kts 52°
2026-05-04 19:28 56.82540 9.47711 34926 ft 470 kts 52°
2026-05-04 19:28 56.84380 9.52615 34494 ft 468 kts 52°
2026-05-04 19:28 56.86209 9.57503 34066 ft 465 kts 52°
2026-05-04 19:28 56.88030 9.62369 33583 ft 462 kts 52°
2026-05-04 19:29 56.89840 9.67196 33086 ft 459 kts 52°
2026-05-04 19:29 56.91641 9.71991 32599 ft 455 kts 52°
2026-05-04 19:29 56.93425 9.76754 32122 ft 452 kts 52°
2026-05-04 19:29 56.95192 9.81489 31655 ft 449 kts 53°
2026-05-04 19:30 56.96944 9.86192 31184 ft 445 kts 53°
2026-05-04 19:30 56.98683 9.90871 30733 ft 443 kts 53°
2026-05-04 19:30 57.00401 9.95495 30316 ft 440 kts 53°
2026-05-04 19:30 57.02123 10.00139 29854 ft 438 kts 53°
2026-05-04 19:31 57.03828 10.04753 29340 ft 436 kts 53°
2026-05-04 19:31 57.05526 10.09360 28842 ft 435 kts 53°
2026-05-04 19:31 57.07219 10.13956 28345 ft 433 kts 52°
2026-05-04 19:31 57.08906 10.18532 27855 ft 432 kts 52°
2026-05-04 19:32 57.10582 10.23094 27376 ft 430 kts 52°
2026-05-04 19:32 57.12256 10.27657 26904 ft 429 kts 52°
2026-05-04 19:32 57.13922 10.32211 26439 ft 428 kts 52°
2026-05-04 19:32 57.15582 10.36760 25983 ft 428 kts 52°
2026-05-04 19:33 57.17235 10.41303 25527 ft 427 kts 52°
2026-05-04 19:33 57.18887 10.45854 25081 ft 426 kts 52°
2026-05-04 19:33 57.20529 10.50394 24647 ft 426 kts 52°
2026-05-04 19:33 57.22151 10.54875 24253 ft 425 kts 52°
2026-05-04 19:34 57.23788 10.59401 23828 ft 424 kts 52°
2026-05-04 19:34 57.25421 10.63927 23394 ft 423 kts 52°
2026-05-04 19:34 57.27046 10.68440 22891 ft 421 kts 52°
2026-05-04 19:34 57.28665 10.72939 22398 ft 419 kts 52°
2026-05-04 19:35 57.30273 10.77420 21907 ft 418 kts 52°
2026-05-04 19:35 57.31873 10.81889 21429 ft 415 kts 52°
2026-05-04 19:35 57.33463 10.86335 20963 ft 413 kts 52°
2026-05-04 19:35 57.35041 10.90757 20498 ft 410 kts 52°
2026-05-04 19:36 57.36603 10.95154 20047 ft 407 kts 53°
2026-05-04 19:36 57.38153 10.99527 19601 ft 404 kts 53°
2026-05-04 19:36 57.39692 11.03866 19155 ft 401 kts 53°
2026-05-04 19:36 57.41222 11.08178 18699 ft 399 kts 53°
2026-05-04 19:37 57.42743 11.12473 18242 ft 396 kts 53°
2026-05-04 19:37 57.44249 11.16745 17768 ft 394 kts 53°
2026-05-04 19:37 57.45745 11.20998 17258 ft 392 kts 53°
2026-05-04 19:37 57.47232 11.25232 16754 ft 390 kts 53°
2026-05-04 19:38 57.48709 11.29446 16260 ft 388 kts 53°
2026-05-04 19:38 57.50176 11.33631 15772 ft 386 kts 53°
2026-05-04 19:38 57.51639 11.37806 15293 ft 384 kts 53°
2026-05-04 19:38 57.53093 11.41964 14814 ft 382 kts 53°
2026-05-04 19:39 57.54540 11.46105 14347 ft 381 kts 54°
2026-05-04 19:39 57.55976 11.50233 13887 ft 379 kts 54°
2026-05-04 19:39 57.57403 11.54351 13396 ft 377 kts 54°
2026-05-04 19:39 57.58820 11.58450 12894 ft 375 kts 54°
2026-05-04 19:40 57.60232 11.62523 12375 ft 370 kts 54°
2026-05-04 19:40 57.61596 11.66477 11869 ft 356 kts 54°
2026-05-04 19:40 57.62910 11.70301 11380 ft 344 kts 54°
2026-05-04 19:40 57.64186 11.74015 10900 ft 336 kts 54°
2026-05-04 19:41 57.65439 11.77662 10460 ft 332 kts 54°
2026-05-04 19:41 57.66681 11.81273 9996 ft 329 kts 53°
2026-05-04 19:41 57.67913 11.84852 9507 ft 326 kts 53°
2026-05-04 19:41 57.69134 11.88411 8996 ft 324 kts 53°
2026-05-04 19:42 57.70337 11.91934 8490 ft 318 kts 53°
2026-05-04 19:42 57.71509 11.95374 8015 ft 309 kts 54°
2026-05-04 19:42 57.72645 11.98711 7874 ft 299 kts 54°
2026-05-04 19:42 57.73732 12.01913 7885 ft 284 kts 53°
2026-05-04 19:43 57.74767 12.04968 7892 ft 271 kts 53°
2026-05-04 19:43 57.75764 12.07909 7582 ft 267 kts 53°
2026-05-04 19:43 57.76756 12.10835 7131 ft 265 kts 53°
2026-05-04 19:43 57.77740 12.13735 6677 ft 262 kts 53°
2026-05-04 19:44 57.78715 12.16602 6225 ft 260 kts 53°
2026-05-04 19:44 57.79687 12.19446 5755 ft 257 kts 51°
2026-05-04 19:44 57.80831 12.21939 5293 ft 250 kts 37°
2026-05-04 19:44 57.82196 12.23867 4828 ft 241 kts 24°
2026-05-04 19:45 57.83658 12.25324 4361 ft 237 kts 20°
2026-05-04 19:45 57.85053 12.26975 3897 ft 240 kts 36°
2026-05-04 19:45 57.86138 12.29371 3423 ft 244 kts 56°
2026-05-04 19:45 57.86778 12.32316 3027 ft 243 kts 76°
2026-05-04 19:46 57.86906 12.35386 2994 ft 230 kts 95°
2026-05-04 19:46 57.86489 12.38222 2997 ft 224 kts 120°
2026-05-04 19:46 57.85556 12.40499 3001 ft 217 kts 145°
2026-05-04 19:46 57.84298 12.41918 3003 ft 208 kts 168°
2026-05-04 19:47 57.82915 12.42387 3001 ft 198 kts 189°
2026-05-04 19:47 57.81593 12.41951 3007 ft 189 kts 209°
2026-05-04 19:47 57.80416 12.40915 3005 ft 186 kts 213°
2026-05-04 19:47 57.79274 12.39863 2999 ft 185 kts 213°
2026-05-04 19:48 57.78121 12.38805 2892 ft 180 kts 213°
2026-05-04 19:48 57.77033 12.37813 2655 ft 167 kts 214°
2026-05-04 19:48 57.76041 12.36907 2444 ft 151 kts 215°
2026-05-04 19:48 57.75140 12.36084 2278 ft 138 kts 216°
2026-05-04 19:49 57.74301 12.35313 2071 ft 131 kts 217°
2026-05-04 19:49 57.73490 12.34567 1881 ft 129 kts 217°
2026-05-04 19:49 57.72686 12.33829 1723 ft 129 kts 216°
2026-05-04 19:49 57.71884 12.33096 1527 ft 128 kts 216°
2026-05-04 19:50 57.71078 12.32357 1343 ft 129 kts 213°
2026-05-04 19:50 57.70269 12.31618 1144 ft 130 kts 212°
2026-05-04 19:50 57.69456 12.30876 957 ft 131 kts 210°
2026-05-04 19:50 57.68637 12.30129 785 ft 131 kts 208°
2026-05-04 19:51 57.67814 12.29378 598 ft 132 kts 208°
2026-05-04 19:51 57.67016 12.28647 514 ft 114 kts 208°
2026-05-04 19:51 57.66547 12.28216 512 ft 55 kts 206°
2026-05-04 19:51 57.66212 12.27911 510 ft 52 kts 206°
2026-05-04 19:52 57.65973 12.27707 507 ft 28 kts 199°
2026-05-04 19:52 57.65836 12.27666 505 ft 17 kts 180°
2026-05-04 19:52 57.65738 12.27688 505 ft 14 kts 155°
2026-05-04 19:52 57.65735 12.27824 505 ft 13 kts 37°
2026-05-04 19:53 57.65820 12.27905 506 ft 14 kts 26°
2026-05-04 19:53 57.65916 12.27992 507 ft 16 kts 26°
2026-05-04 19:53 57.66021 12.28089 508 ft 18 kts 26°
2026-05-04 19:53 57.66140 12.28196 509 ft 20 kts 26°
2026-05-04 19:54 57.66270 12.28313 511 ft 22 kts 26°
2026-05-04 19:54 57.66416 12.28447 511 ft 25 kts 26°
2026-05-04 19:54 57.66568 12.28586 512 ft 16 kts 26°
2026-05-04 19:54 57.66660 12.28680 512 ft 11 kts 47°
2026-05-04 19:55 57.66651 12.28809 516 ft 10 kts 116°
2026-05-04 19:55 57.66618 12.28933 516 ft 12 kts 116°
2026-05-04 19:55 57.66644 12.29029 516 ft 11 kts 30°
2026-05-04 19:55 57.66694 12.29117 516 ft 10 kts 97°
2026-05-04 19:56 57.66668 12.29220 516 ft 0 kts 116°